Wind_Speed
7 7 7 8 8 8 7 7 8 7 6 6 9 21 26 24 22 21 20 18 16 14 14 14 14 14 15 16 17 18 17 15 21 21 21 22 19 15 11 12 9 10 10 10 11 14 17
11 11 10 9 10 10 9 8 7 8 9 8 7 7 10 23 26 24 22 21 19 16 15 15 16 15 15 15 14 20 15 15 23 25 24 23 21 18 13 13 10 12 14 13 13 14 15
15 15 14 14 13 13 13 12 11 9 8 9 9 9 8 6 15 26 24 23 22 20 17 17 17 17 17 13 16 18 18 19 24 27 26 27 25 21 16 13 12 13 16 15 15 14 14
17 17 18 19 19 18 16 17 16 14 12 10 10 10 10 8 7 6 21 27 24 23 21 19 19 20 19 18 17 17 19 22 26 28 30 29 28 25 20 14 16 14 18 15 16 14 11
21 20 19 19 20 21 21 19 19 17 16 15 13 13 12 9 9 6 5 18 28 25 24 24 22 21 20 20 19 19 20 23 27 29 30 29 27 26 18 19 20 17 10 13 18 17 14
28 27 27 25 23 22 22 22 22 22 19 18 17 17 15 12 11 8 5 7 16 29 26 26 26 23 22 22 21 20 20 21 24 27 30 31 29 28 21 25 20 17 17 14 19 18 16
31 32 32 32 31 29 27 25 25 26 25 23 22 20 19 16 15 12 8 7 8 14 30 30 29 29 26 26 24 23 21 22 24 27 28 28 26 20 13 22 22 19 17 15 16 20 17
34 33 34 34 33 35 35 33 31 28 28 28 27 25 25 21 17 15 12 9 9 6 15 32 31 31 31 28 26 25 24 23 23 24 28 26 20 19 20 20 24 24 20 17 21 19 18
39 39 39 38 38 37 37 37 37 36 33 31 31 30 29 27 23 19 17 14 12 11 11 14 33 33 34 31 29 28 26 25 24 25 24 22 19 26 26 23 26 24 21 17 18 24 20
44 44 43 43 43 42 41 40 39 40 40 37 34 33 33 33 31 27 23 20 17 16 15 17 16 35 36 34 33 31 29 29 28 24 25 28 30 31 26 24 21 20 18 18 23 25 18
47 48 48 48 47 47 46 45 44 43 42 43 40 37 36 36 36 33 31 28 25 21 20 19 19 16 35 35 35 33 33 33 31 29 29 22 26 30 36 28 22 19 23 17 19 23 22
51 53 53 53 52 51 50 50 49 48 48 47 45 45 42 40 39 38 36 35 31 30 27 20 17 18 19 30 37 39 36 37 36 36 32 34 32 34 32 29 26 33 22 21 22 22 26
58 57 56 56 57 57 55 54 54 53 52 51 50 48 46 47 46 44 40 38 38 38 30 27 23 21 20 18 29 41 41 41 40 38 37 38 31 33 35 40 39 32 31 28 29 27 23
63 63 63 62 62 61 61 59 58 57 57 57 56 54 51 50 50 51 49 46 44 42 35 33 28 25 21 20 21 35 44 44 43 40 38 38 40 39 41 41 38 33 37 31 27 21 16
68 68 68 68 67 66 66 66 64 62 61 60 60 60 56 55 54 54 54 55 50 47 41 38 34 31 29 27 25 23 38 42 43 42 43 41 38 38 39 38 41 37 42 33 28 25 26
66 66 67 68 69 69 70 70 70 69 68 65 64 64 63 58 57 59 58 54 55 54 48 44 40 37 32 31 30 30 27 34 44 44 43 44 43 42 35 40 43 41 38 41 41 33 33
65 65 66 67 66 66 68 69 72 72 73 72 71 68 68 67 64 61 61 60 58 57 52 53 48 45 39 36 35 34 33 31 37 45 45 46 45 48 44 48 46 49 46 44 36 37 34
60 61 62 62 62 64 65 65 66 68 71 73 73 75 74 73 71 68 65 64 64 60 57 56 54 50 47 44 40 39 37 37 34 42 48 47 46 51 49 45 45 46 46 43 43 41 40
63 65 64 62 61 59 58 59 59 60 63 65 69 72 75 78 76 76 74 71 68 66 63 62 59 55 52 50 48 45 43 42 39 39 47 49 52 51 52 54 52 52 49 48 45 42 41
62 62 57 52 50 50 51 53 53 52 52 54 58 62 68 71 78 79 80 76 75 72 69 67 65 61 58 55 54 52 49 45 44 42 43 52 53 53 53 51 49 52 53 52 52 49 43
57 51 44 40 40 41 42 44 44 42 42 43 44 50 53 61 70 75 82 82 82 80 77 73 73 68 63 59 56 57 54 51 47 49 46 47 53 55 54 48 44 52 54 57 53 50 50
48 43 38 34 33 33 36 38 39 39 40 40 39 38 40 47 54 61 73 76 82 86 83 79 78 76 72 68 64 61 58 56 54 52 52 52 52 54 57 54 55 56 57 55 55 53 51
40 36 34 32 29 28 28 31 33 35 36 38 39 39 37 37 40 46 55 68 77 83 82 86 85 80 76 74 70 68 65 64 63 58 57 56 53 54 56 53 52 59 57 55 55 56 54
37 33 33 32 30 28 27 27 29 31 34 35 40 42 43 40 39 40 45 54 61 71 79 81 85 82 81 79 74 70 68 63 62 61 59 57 55 56 53 51 54 40 49 54 55 57 56
35 34 34 31 29 28 28 29 29 29 29 31 30 36 39 40 40 39 39 43 49 59 63 70 79 80 84 79 78 75 73 70 67 66 64 62 59 58 56 55 50 45 49 53 55 56 53
35 32 32 31 30 29 28 27 28 27 25 25 27 30 31 36 37 38 39 40 41 48 55 57 67 72 76 76 77 78 77 74 72 69 68 68 64 60 56 54 52 41 40 45 46 54 51
35 36 35 33 33 32 29 25 23 21 18 17 22 25 26 30 31 35 38 40 38 40 47 54 56 58 62 72 74 76 77 77 76 73 72 71 69 61 56 54 54 50 42 44 39 34 35
38 38 36 40 38 32 18 21 18 20 18 15 18 20 23 23 25 31 35 36 38 38 41 50 49 52 55 60 69 69 72 76 72 72 73 74 71 63 59 57 56 51 49 43 29 25 24
40 39 38 38 42 29 18 15 14 18 18 16 14 14 17 22 23 26 30 33 35 35 36 42 51 54 56 51 52 42 64 65 71 71 69 74 72 67 62 55 56 47 45 38 26 21 24
Wind_Direction
324 322 326 330 332 333 332 330 326 328 323 323 280 253 250 249 245 244 242 241 239 234 233 231 230 231 235 236 227 226 228 208 194 197 196 191 190 184 146 145 161 153 147 134 109 104 99
319 314 308 306 306 307 307 307 312 316 314 312 315 315 268 248 249 245 241 241 239 234 233 234 232 230 234 235 222 220 216 193 191 196 203 202 199 198 160 163 169 167 160 143 119 107 103
300 297 296 295 296 299 298 294 291 289 291 301 307 305 309 309 254 247 244 241 237 234 229 232 233 231 232 229 222 219 213 195 192 197 203 207 204 203 180 185 182 169 154 143 134 125 108
302 298 291 285 283 284 287 289 287 281 280 280 280 289 303 309 311 287 245 239 238 233 228 228 231 232 231 228 223 218 208 201 195 198 205 209 210 213 201 186 184 176 167 148 144 135 128
299 297 294 293 291 284 279 277 281 282 279 275 277 277 276 283 297 309 294 241 235 234 230 227 229 229 230 229 225 220 214 210 204 204 207 212 215 218 216 189 182 179 186 180 148 139 131
296 294 292 289 286 285 284 278 270 272 275 277 275 273 274 273 270 272 274 289 245 231 231 229 228 229 227 226 224 221 216 217 216 214 211 212 213 219 217 184 191 191 168 197 165 167 158
291 289 289 288 286 282 278 276 274 268 265 268 272 275 270 266 265 266 252 247 280 246 226 229 228 229 227 225 222 224 217 214 217 217 216 219 217 201 177 167 183 201 201 206 201 180 179
287 284 282 281 281 281 279 276 273 269 267 264 264 268 272 266 257 258 257 243 251 261 242 227 228 230 227 225 223 223 220 221 217 219 220 215 206 207 215 207 183 182 193 206 218 202 195
284 282 279 278 277 275 273 272 273 271 267 263 261 262 265 264 261 255 257 255 247 244 253 256 230 228 230 226 224 223 223 219 218 218 224 224 219 221 216 204 191 193 205 212 220 215 212
286 283 279 276 274 272 270 269 268 267 266 262 261 259 259 260 259 259 259 258 255 250 250 251 248 229 229 225 227 222 222 219 220 218 217 219 217 221 222 213 200 208 193 208 222 216 229
284 282 280 277 274 272 268 266 264 263 261 260 258 256 257 256 256 255 257 258 258 256 255 245 254 237 232 227 224 227 223 222 220 216 218 219 217 216 223 219 218 207 212 213 216 222 232
287 283 280 277 274 271 268 266 263 259 259 258 255 254 253 255 254 254 253 254 255 253 251 252 245 245 240 234 225 225 221 221 220 218 213 216 210 212 220 225 223 232 206 230 223 225 237
290 288 282 277 273 271 267 264 262 259 257 255 254 252 249 251 252 252 251 249 252 250 251 248 247 247 241 241 232 226 224 225 225 224 218 221 208 214 214 213 218 210 215 224 226 230 234
287 284 281 279 277 273 269 264 260 258 257 255 253 251 249 247 248 249 249 248 246 247 246 247 245 245 249 245 239 228 226 222 220 224 224 227 219 210 212 216 218 207 212 214 228 233 238
289 285 280 276 271 269 268 266 264 258 254 253 251 250 247 245 244 245 246 247 247 246 245 246 244 243 243 244 238 235 230 229 226 223 224 224 226 222 221 220 222 221 221 220 231 231 232
294 290 285 280 276 271 265 262 259 258 257 253 250 248 246 243 241 241 243 245 246 245 244 244 243 241 241 240 237 234 235 229 227 226 224 228 224 228 220 222 226 226 230 229 224 228 237
295 291 287 283 279 274 270 264 260 256 252 251 250 248 246 244 240 239 240 242 242 244 242 241 240 240 236 237 237 236 235 232 228 225 225 227 225 229 220 221 222 226 228 225 227 235 238
303 300 294 287 282 277 274 268 263 258 254 250 246 244 242 243 242 239 238 239 240 240 240 240 239 236 236 234 234 235 233 231 227 227 223 225 226 231 227 224 221 229 232 238 233 230 234
307 305 298 289 282 277 273 270 267 263 259 254 249 244 240 238 238 238 237 237 238 238 236 238 238 236 233 230 233 234 233 233 230 227 224 220 223 224 230 227 223 223 227 232 234 235 239
312 308 301 292 283 275 271 268 267 266 265 262 256 251 243 238 235 235 235 236 236 237 235 236 237 234 232 229 230 233 234 232 229 225 225 223 225 228 232 238 238 228 229 229 233 235 234
314 314 308 297 287 276 271 268 267 266 264 263 260 256 251 243 237 233 232 231 233 233 233 233 234 233 232 229 229 229 228 234 225 229 225 227 229 228 226 224 234 236 231 235 236 240 242
321 317 314 309 299 284 275 272 267 265 263 260 259 257 255 252 242 236 231 229 229 230 230 229 230 231 230 227 226 226 228 228 228 224 225 226 230 229 231 227 231 235 236 235 238 240 241
321 319 320 318 308 298 289 280 274 267 262 260 254 251 249 250 249 241 235 229 227 227 226 228 229 230 229 226 226 228 227 225 226 224 225 225 227 229 233 229 229 235 236 240 241 241 243
324 321 319 314 307 303 297 289 282 274 267 263 256 252 250 249 248 245 240 233 228 226 226 225 226 225 227 227 226 224 227 223 226 227 229 229 225 231 231 231 232 243 237 240 242 244 247
332 326 323 319 312 303 295 289 285 281 274 264 258 253 249 246 243 241 240 237 232 227 225 224 225 224 225 225 225 221 222 222 224 225 226 229 228 227 228 233 238 236 239 237 239 244 248
342 335 332 326 319 312 304 293 282 279 272 260 252 248 249 241 238 235 234 236 233 227 225 223 222 222 222 223 222 221 220 221 221 222 225 226 227 230 232 231 237 237 235 241 241 244 243
352 348 344 338 330 319 305 288 285 279 267 256 245 246 248 242 233 231 228 229 232 228 223 222 220 219 220 221 221 221 220 220 219 221 219 225 227 230 232 233 233 235 232 240 238 244 248
358 356 354 350 341 327 312 292 278 278 265 252 245 245 242 244 229 225 224 225 227 227 223 221 213 215 216 218 220 218 218 219 221 219 216 223 226 230 231 233 235 232 233 237 246 243 245
5 2 360 355 352 356 334 306 281 256 255 241 248 254 251 246 230 223 219 222 224 226 223 220 215 209 208 213 214 211 221 214 218 221 215 219 224 228 232 236 241 235 239 241 240 238 241
Height
5893 5892 5890 5888 5887 5886 5884 5883 5882 5881 5880 5878 5877 5878 5879 5881 5882 5884 5885 5886 5888 5889 5890 5890 5891 5892 5893 5895 5897 5899 5902 5907 5911 5915 5918 5922 5925 5929 5932 5932 5934 5934 5935 5935 5934 5932 5930
5891 5890 5889 5887 5886 5884 5883 5882 5881 5879 5878 5877 5876 5875 5874 5875 5876 5879 5881 5882 5883 5886 5887 5887 5888 5889 5891 5892 5895 5897 5900 5905 5909 5912 5916 5920 5925 5928 5931 5932 5933 5935 5935 5935 5935 5934 5932
5889 5888 5886 5885 5883 5882 5881 5880 5879 5878 5877 5875 5874 5873 5872 5871 5871 5872 5876 5878 5880 5881 5884 5884 5885 5886 5888 5891 5892 5894 5898 5903 5906 5910 5914 5918 5922 5926 5930 5932 5933 5934 5936 5936 5935 5934 5933
5885 5884 5882 5881 5880 5879 5878 5876 5875 5875 5874 5873 5872 5871 5870 5869 5869 5869 5869 5871 5874 5877 5879 5881 5882 5883 5885 5887 5889 5892 5895 5899 5903 5906 5910 5914 5919 5923 5928 5932 5933 5934 5937 5938 5936 5936 5935
5881 5880 5879 5877 5875 5874 5873 5873 5872 5871 5870 5870 5869 5868 5867 5866 5866 5866 5866 5865 5867 5871 5874 5876 5878 5880 5882 5884 5887 5890 5893 5896 5899 5903 5907 5912 5916 5920 5926 5930 5933 5934 5939 5941 5938 5937 5937
5876 5874 5873 5872 5871 5869 5868 5867 5867 5866 5866 5865 5865 5865 5864 5864 5863 5863 5863 5862 5862 5865 5869 5871 5873 5877 5879 5881 5883 5886 5890 5893 5897 5901 5904 5908 5913 5918 5922 5927 5933 5936 5938 5940 5937 5937 5936
5869 5867 5866 5864 5863 5863 5861 5861 5860 5860 5860 5860 5859 5859 5860 5860 5860 5860 5860 5860 5861 5861 5861 5865 5869 5870 5873 5877 5880 5883 5886 5889 5893 5897 5902 5906 5910 5914 5921 5926 5931 5934 5937 5939 5939 5937 5937
5861 5859 5858 5856 5855 5854 5853 5853 5853 5853 5853 5853 5853 5853 5853 5855 5855 5856 5856 5856 5856 5857 5857 5858 5862 5865 5868 5871 5876 5879 5883 5886 5890 5894 5898 5903 5906 5913 5918 5921 5925 5929 5933 5938 5936 5936 5937
5851 5848 5847 5846 5845 5844 5844 5844 5843 5843 5844 5845 5845 5846 5846 5847 5849 5851 5851 5852 5852 5852 5853 5853 5855 5858 5862 5868 5871 5875 5879 5882 5885 5889 5893 5900 5907 5909 5912 5917 5921 5926 5930 5935 5936 5935 5935
5839 5837 5835 5834 5833 5833 5832 5832 5832 5833 5834 5835 5836 5837 5838 5839 5842 5843 5845 5846 5848 5848 5849 5849 5851 5853 5856 5862 5864 5869 5873 5877 5880 5886 5889 5893 5899 5902 5908 5912 5918 5923 5926 5931 5930 5932 5937
5825 5823 5821 5820 5819 5819 5819 5819 5820 5820 5822 5823 5825 5827 5828 5829 5831 5835 5837 5838 5841 5843 5844 5846 5845 5848 5849 5856 5860 5864 5868 5871 5876 5880 5884 5892 5893 5896 5900 5908 5914 5921 5921 5924 5926 5929 5931
5811 5807 5805 5803 5802 5803 5803 5804 5805 5806 5807 5809 5812 5815 5818 5819 5820 5824 5827 5829 5832 5835 5836 5840 5841 5842 5844 5846 5852 5855 5861 5865 5868 5872 5878 5880 5886 5890 5898 5906 5909 5913 5917 5919 5922 5925 5926
5793 5790 5788 5786 5785 5784 5785 5786 5788 5790 5792 5793 5796 5800 5804 5807 5810 5811 5815 5819 5821 5822 5830 5834 5836 5838 5839 5841 5843 5847 5853 5857 5862 5867 5871 5874 5880 5886 5892 5896 5900 5905 5910 5914 5916 5918 5920
5773 5770 5767 5765 5764 5764 5764 5766 5768 5771 5773 5776 5779 5783 5787 5792 5795 5798 5802 5807 5809 5812 5820 5824 5829 5831 5833 5835 5837 5839 5843 5848 5853 5861 5866 5870 5872 5877 5882 5887 5893 5898 5904 5909 5913 5917 5922
5750 5746 5743 5741 5740 5740 5741 5743 5745 5748 5752 5756 5760 5763 5769 5775 5779 5781 5786 5790 5797 5802 5810 5813 5819 5822 5825 5828 5831 5833 5836 5843 5849 5855 5859 5864 5869 5873 5877 5885 5888 5893 5892 5906 5910 5915 5914
5725 5720 5717 5714 5713 5713 5714 5716 5720 5723 5727 5733 5738 5742 5748 5755 5761 5765 5769 5777 5781 5786 5796 5801 5807 5812 5816 5819 5823 5826 5828 5835 5839 5846 5852 5858 5862 5865 5874 5877 5880 5886 5894 5896 5896 5902 5906
5702 5696 5692 5688 5686 5685 5685 5688 5691 5696 5701 5706 5713 5719 5727 5732 5739 5746 5752 5758 5764 5769 5780 5785 5793 5799 5805 5809 5814 5817 5822 5827 5831 5836 5842 5848 5856 5857 5863 5862 5871 5874 5880 5885 5895 5897 5899
5680 5673 5668 5664 5661 5658 5657 5659 5662 5666 5671 5677 5685 5693 5702 5707 5717 5725 5733 5738 5745 5754 5762 5768 5776 5785 5791 5796 5802 5807 5813 5817 5822 5826 5831 5838 5846 5848 5855 5860 5865 5869 5875 5881 5885 5889 5890
5660 5651 5643 5638 5635 5634 5634 5635 5637 5640 5643 5648 5654 5663 5673 5681 5691 5700 5709 5717 5725 5734 5744 5751 5758 5768 5777 5783 5789 5794 5800 5805 5812 5817 5821 5827 5831 5839 5844 5848 5853 5858 5866 5870 5876 5883 5884
5640 5630 5620 5614 5611 5611 5612 5613 5616 5619 5621 5625 5630 5635 5644 5652 5664 5673 5684 5696 5703 5713 5724 5731 5740 5750 5759 5768 5774 5780 5786 5794 5801 5808 5812 5816 5822 5829 5836 5846 5850 5855 5857 5860 5865 5869 5876
5623 5613 5605 5599 5595 5594 5595 5596 5598 5602 5604 5608 5610 5613 5619 5627 5635 5647 5657 5669 5679 5690 5701 5710 5719 5731 5743 5753 5761 5766 5773 5780 5791 5794 5803 5808 5812 5819 5827 5833 5837 5842 5849 5851 5856 5863 5864
5610 5602 5595 5588 5584 5582 5581 5581 5583 5587 5589 5592 5595 5599 5603 5605 5613 5621 5631 5642 5652 5663 5679 5689 5697 5706 5721 5732 5742 5751 5759 5767 5775 5783 5789 5795 5802 5809 5813 5823 5828 5831 5836 5842 5847 5853 5857
5600 5593 5586 5580 5576 5573 5570 5569 5570 5573 5575 5575 5580 5583 5588 5592 5595 5602 5607 5616 5628 5641 5652 5662 5677 5689 5700 5709 5724 5734 5743 5748 5755 5767 5775 5783 5792 5797 5802 5812 5819 5818 5825 5834 5840 5843 5849
5591 5585 5578 5573 5568 5565 5562 5560 5559 5560 5561 5562 5564 5568 5572 5578 5583 5586 5591 5598 5608 5617 5629 5641 5653 5665 5673 5692 5708 5721 5729 5740 5747 5755 5763 5771 5781 5786 5795 5802 5804 5813 5819 5825 5829 5833 5838
5585 5578 5571 5565 5560 5555 5552 5550 5548 5547 5548 5550 5551 5553 5557 5563 5568 5574 5578 5582 5591 5600 5611 5619 5630 5643 5657 5673 5686 5700 5711 5722 5733 5741 5750 5758 5766 5775 5782 5789 5797 5804 5807 5813 5816 5823 5830
5580 5572 5565 5558 5552 5546 5542 5538 5537 5536 5537 5539 5540 5542 5544 5549 5556 5560 5566 5571 5578 5585 5596 5605 5609 5625 5639 5652 5663 5678 5692 5709 5719 5728 5735 5744 5752 5762 5772 5780 5783 5797 5800 5803 5811 5811 5821
5577 5568 5560 5551 5544 5537 5531 5528 5527 5526 5528 5529 5531 5533 5535 5537 5545 5549 5555 5560 5566 5574 5581 5590 5600 5611 5621 5634 5646 5661 5677 5691 5700 5713 5724 5729 5738 5749 5759 5767 5775 5783 5792 5793 5802 5812 5815
5574 5565 5556 5547 5537 5526 5522 5520 5518 5519 5521 5523 5524 5526 5527 5530 5535 5539 5544 5551 5557 5563 5570 5576 5593 5598 5611 5619 5633 5645 5659 5673 5684 5698 5709 5718 5727 5738 5750 5756 5763 5772 5780 5787 5800 5805 5808
5574 5564 5555 5545 5533 5521 5516 5512 5510 5512 5515 5517 5519 5521 5521 5523 5528 5531 5537 5542 5548 5554 5563 5570 5575 5587 5595 5608 5620 5630 5643 5657 5669 5679 5695 5705 5718 5731 5739 5749 5754 5767 5776 5783 5791 5797 5799